Weather Roundup
Issued by NWS Springfield, MO

Home | Current Version | Previous Version | Text Only | Print | Product List | Glossary On
Versions: 1 2 3 4 5 6 7 8 9 10 11 12 13 14 15 16 17 18 19 20 21 22 23 24 25 26 27 28 29 30 31 32 33 34 35 36 37 38 39 40 41 42 43 44 45 46 47 48 49 50
000
NZUS99 KSGF 282257
HRRSGF

HOURLY WEATHER
NATIONAL WEATHER SERVICE SPRINGFIELD MO
600 PM CDT THU JUL 28 2016

......SGF CWA......

CITY           SKY/WX    TMP DP  RH WIND       PRES   REMARKS
SPRINGFIELD    PTSUNNY   81  67  62 VRB7      29.96R
JOPLIN         CLOUDY    90  70  51 NW6       29.92F HX  95
BRANSON        CLOUDY    81  73  78 SW9       29.95R

......SURROUNDING SGF CWA......

CITY           SKY/WX    TMP DP  RH WIND       PRES   REMARKS
CHANUTE        PTSUNNY   88  72  58 CALM      29.93S HX  94
PARSONS        CLOUDY    87  75  67 CALM      29.93F HX  96
COFFEYVILLE    CLOUDY    87  75  67 SW5       29.91F HX  96

......KANSAS AND MISSOURI......

CITY           SKY/WX    TMP DP  RH WIND       PRES   REMARKS
KANSAS CTY INT NOT AVBL
COLUMBIA       LGT RAIN  73  72  94 E9        29.92S
ST JOSEPH      NOT AVBL
ST LOUIS       CLOUDY    88  69  53 NW12      29.88  HX  92

......TENNESSEE......

CITY           SKY/WX    TMP DP  RH WIND       PRES   REMARKS
MEMPHIS        NOT AVBL

......ARKANSAS.......

CITY           SKY/WX    TMP DP  RH WIND       PRES   REMARKS
LITTLE ROCK    NOT AVBL

......OKLAHOMA.......

CITY           SKY/WX    TMP DP  RH WIND       PRES   REMARKS
TULSA          NOT AVBL
OKLAHOMA CITY  PTSUNNY   94  73  50 SE8       29.91F HX 103

......IOWA............

CITY           SKY/WX    TMP DP  RH WIND       PRES   REMARKS
DES MOINES     NOT AVBL
QUAD CITIES    MOSUNNY   84  66  54 W12       29.88S

......ILLINOIS........

CITY           SKY/WX    TMP DP  RH WIND       PRES   REMARKS
QUINCY         PTSUNNY   81  73  78 NW8       29.90R
CHICAGO        CLOUDY    75  72  90 NE8       29.87F




USA.gov is the U.S. government's official web portal to all federal, state and local government web resources and services.